1522623600.61,62505,10.19,71548.0,-11.87,-15.57,-14.79,0,*66
1522623601.86,62506,10.19,71560.3,-11.87,-15.63,-14.75,0,*6E
1522623603.07,62507,10.19,71538.5,-11.87,-15.49,-14.61,0,*62
1522623604.37,62508,10.19,71522.8,-11.89,-15.43,-14.55,0,*6E
1522623605.64,62509,10.19,71530.5,-11.87,-15.21,-14.47,0,*66
1522623606.88,62510,10.19,71536.0,-11.89,-15.07,-14.15,0,*63
1522623608.11,62511,10.19,71538.8,-11.89,-14.65,-13.73,0,*60
1522623609.36,62512,10.19,71542.3,-11.87,-14.29,-13.61,0,*66
1522623610.62,62513,10.19,71536.0,-11.89,-14.05,-13.47,0,*63
1522623611.89,62514,10.19,71512.5,-11.89,-13.69,-13.29,0,*61
1522623613.15,62515,10.19,71516.5,-11.89,-13.61,-13.43,0,*64
1522623614.4,62516,10.13,71506.3,-11.87,-13.61,-13.43,0,*69
1522623615.66,62517,10.13,71548.5,-11.89,-13.55,-13.29,0,*6D
1522623616.9,62518,10.13,71544.0,-11.87,-13.47,-13.29,0,*6F
1522623618.15,62519,10.13,71534.8,-11.87,-13.55,-13.33,0,*66
1522623619.42,62520,10.19,71548.3,-11.89,-13.61,-13.43,0,*62
1522623620.65,62521,10.13,71508.8,-11.89,-13.69,-13.43,0,*6B
1522623621.93,62522,10.13,71534.5,-11.87,-13.61,-13.29,0,*62
1522623623.14,62523,10.19,71558.0,-11.87,-13.43,-13.15,0,*6C
1522623624.41,62524,10.19,71570.8,-11.89,-13.29,-13.15,0,*69
1522623625.65,62525,10.13,71570.0,-11.89,-13.19,-13.15,0,*6B
1522623626.86,62526,10.19,71574.0,-11.87,-13.15,-13.15,0,*6A
1522623628.11,62527,10.13,71572.5,-11.87,-13.29,-13.15,0,*64
1522623629.34,62528,10.19,71572.5,-11.87,-13.43,-13.19,0,*6B
1522623630.58,62529,10.19,71572.5,-11.87,-13.29,-13.15,0,*6A
1522623631.83,62530,10.19,71566.0,-11.85,-13.23,-12.97,0,*61
1522623633.07,62531,10.19,71550.3,-11.87,-13.19,-13.01,0,*65
1522623634.34,62532,10.13,71528.5,-11.85,-13.01,-12.97,0,*63
1522623635.61,62533,10.19,71530.0,-11.87,-13.01,-13.01,0,*6E
1522623636.83,62534,10.19,71534.8,-11.87,-13.19,-13.07,0,*66
1522623638.08,62535,10.19,71488.5,-11.87,-13.19,-13.29,0,*6B
1522623639.36,62536,10.13,71516.3,-11.87,-13.61,-13.61,0,*6B
1522623640.6,62537,10.19,71522.3,-11.87,-14.05,-13.93,0,*62
1522623641.88,62538,10.13,71506.5,-11.87,-14.47,-14.05,0,*63
1522623643.16,62539,10.19,71498.0,-11.87,-14.43,-14.01,0,*62
1522623644.39,62540,10.19,71524.5,-11.87,-14.15,-13.73,0,*6D
1522623645.6,62541,10.19,71532.0,-11.87,-13.93,-13.73,0,*65
1522623646.82,62542,10.19,71532.0,-11.87,-14.33,-13.73,0,*6B
1522623648.07,62543,10.13,71540.3,-11.87,-13.79,-13.55,0,*67
1522623649.32,62544,10.13,71544.5,-11.89,-13.43,-13.19,0,*6F
1522623650.58,62545,10.19,71516.3,-11.89,-13.29,-13.15,0,*6E
1522623651.84,62546,10.19,71522.5,-11.89,-13.33,-13.07,0,*65
1522623653.11,62547,10.19,71518.3,-11.89,-13.29,-13.07,0,*6F
1522623654.33,62548,10.19,71522.5,-11.87,-13.19,-13.15,0,*6E
1522623655.54,62549,10.13,71522.5,-11.87,-13.15,-13.07,0,*60
1522623656.78,62550,10.19,71562.3,-11.89,-13.19,-13.07,0,*6A
1522623658.03,62551,10.19,71540.8,-11.89,-13.19,-13.15,0,*68
1522623659.26,62552,10.13,71518.3,-11.89,-13.15,-13.15,0,*67
1522623660.53,62553,10.19,71496.3,-11.89,-13.43,-13.33,0,*61
1522623661.77,62554,10.19,71550.3,-11.89,-13.55,-13.55,0,*61
1522623662.98,62555,10.13,71512.5,-11.87,-13.55,-13.47,0,*6D
1522623664.2,62556,10.19,71506.3,-11.87,-13.55,-13.55,0,*6D
1522623665.43,62557,10.19,71508.8,-11.87,-13.69,-13.55,0,*63
1522623666.67,62558,10.19,71548.3,-11.89,-13.73,-13.55,0,*69
1522623667.93,62559,10.19,71524.0,-11.87,-13.79,-13.87,0,*63
1522623669.21,62560,10.19,71508.5,-11.89,-14.01,-13.73,0,*64
1522623670.44,62561,10.19,71502.5,-11.89,-13.93,-13.73,0,*69
1522623671.71,62562,10.19,71516.5,-11.89,-13.93,-14.01,0,*68
1522623672.93,62563,10.13,71522.3,-11.87,-14.33,-14.19,0,*63
1522623674.18,62564,10.13,71554.5,-11.89,-14.19,-14.15,0,*6E
1522623675.4,62565,10.13,71486.3,-11.87,-14.65,-14.19,0,*66
1522623676.61,62566,10.19,71496.5,-11.87,-14.61,-14.19,0,*61
1522623677.88,62567,10.13,71510.5,-11.89,-14.61,-14.55,0,*66
1522623679.14,62568,10.19,71512.8,-11.89,-15.21,-14.61,0,*6B
1522623680.38,62569,10.13,71546.0,-11.91,-14.93,-14.33,0,*6C
1522623681.64,62570,10.19,71542.8,-11.89,-14.33,-13.87,0,*6F
1522623682.91,62571,10.13,71530.5,-11.89,-14.29,-14.05,0,*68
1522623684.19,62572,10.13,71514.8,-11.87,-14.47,-14.01,0,*69
1522623685.46,62573,10.19,71436.0,-11.89,-14.33,-14.05,0,*61
1522623686.7,62574,10.19,71466.3,-11.89,-14.19,-13.73,0,*68
1522623687.98,62575,10.19,71482.3,-11.89,-14.19,-14.01,0,*6B
1522623689.22,62576,10.19,71412.0,-11.95,-14.47,-13.93,0,*62
1522623690.47,62577,10.13,71498.8,-11.91,-13.83,-13.51,0,*66
1522623691.74,62578,10.19,71470.3,-11.91,-13.61,-13.61,0,*66
1522623692.99,62579,10.19,71506.3,-11.91,-13.83,-13.93,0,*66
1522623694.29,62580,10.19,71476.5,-11.89,-14.43,-14.47,0,*6C
1522623695.52,62581,10.19,71482.5,-11.91,-14.69,-14.51,0,*6B
1522623696.76,62582,10.19,71566.8,-11.89,-15.07,-14.61,0,*6B
1522623698.03,62583,10.19,71572.3,-11.89,-15.43,-14.61,0,*6A
1522623699.27,62584,10.13,71574.0,-11.89,-14.89,-14.15,0,*69
1522623700.51,62585,10.19,71568.0,-11.89,-14.19,-13.69,0,*6D
1522623701.76,62586,10.19,71544.5,-11.91,-13.83,-13.65,0,*6F
1522623703.0,62587,10.13,71510.0,-11.91,-13.79,-13.65,0,*6B
1522623704.21,62588,10.19,71468.5,-11.91,-13.93,-13.65,0,*60
1522623705.46,62589,10.19,71484.3,-11.91,-13.73,-13.61,0,*6B
1522623706.7,62590,10.19,71492.5,-11.91,-13.65,-13.61,0,*64
1522623707.94,62591,10.19,71550.5,-11.91,-13.83,-13.93,0,*60
1522623709.19,62592,10.13,71504.0,-11.91,-14.37,-13.83,0,*6A
1522623710.44,62593,10.19,71382.5,-11.91,-14.19,-13.97,0,*62
1522623711.69,62594,10.19,71528.0,-11.91,-14.23,-14.05,0,*60
1522623712.93,62595,10.19,71536.5,-11.91,-14.61,-14.05,0,*67
1522623714.18,62596,10.13,71414.0,-11.91,-14.11,-13.61,0,*66
1522623715.42,62597,10.19,71448.3,-11.91,-13.65,-13.33,0,*64
1522623716.67,62598,10.19,71548.0,-11.91,-13.37,-13.19,0,*64
1522623717.92,62599,10.19,71546.5,-11.89,-13.19,-13.07,0,*6F
1522623719.16,62600,10.19,71526.8,-11.89,-13.19,-13.15,0,*6F
1522623720.43,62601,10.19,71554.0,-11.91,-13.33,-13.33,0,*6B
1522623721.67,62602,10.19,71544.5,-11.91,-13.37,-13.23,0,*6D
1522623722.91,62603,10.13,71560.5,-11.95,-13.33,-13.11,0,*6D
1522623724.14,62604,10.19,71562.5,-11.91,-13.23,-13.11,0,*6F
1522623725.38,62605,10.19,71562.0,-11.91,-13.33,-13.19,0,*67
1522623726.63,62606,10.19,71556.5,-11.91,-13.33,-13.19,0,*64
1522623727.91,62607,10.13,71550.5,-11.89,-13.29,-13.19,0,*67
1522623729.15,62608,10.13,71552.5,-11.91,-13.37,-13.23,0,*67
1522623730.39,62609,10.19,71570.8,-11.91,-13.47,-13.33,0,*60
1522623731.63,62610,10.19,71566.5,-11.91,-13.61,-13.47,0,*6F
1522623732.84,62611,10.19,71590.3,-11.95,-13.47,-13.47,0,*6E
1522623734.05,62612,10.19,71582.5,-11.91,-13.47,-13.51,0,*6E
1522623735.32,62613,10.19,71592.3,-11.91,-13.61,-13.61,0,*68
1522623736.57,62614,10.13,71556.5,-11.91,-13.73,-13.61,0,*6C
1522623737.82,62615,10.19,71562.8,-11.91,-13.51,-13.33,0,*6A
1522623739.09,62616,10.13,71534.0,-11.91,-13.33,-13.33,0,*6D
1522623740.36,62617,10.19,71500.3,-11.91,-13.37,-13.33,0,*68
1522623741.57,62618,10.13,71474.5,-11.95,-13.47,-13.47,0,*67
1522623742.84,62619,10.19,71482.3,-11.91,-13.37,-13.37,0,*62
1522623744.04,62620,10.19,71492.5,-11.95,-13.47,-13.47,0,*6C
1522623745.29,62621,10.13,71494.8,-11.91,-13.51,-13.37,0,*69
1522623746.53,62622,10.19,71500.3,-11.91,-13.47,-13.33,0,*69
1522623747.75,62623,10.19,71514.5,-11.95,-13.47,-13.23,0,*6D
1522623748.99,62624,10.19,71518.3,-11.91,-13.33,-13.23,0,*6D
1522623750.26,62625,10.13,71502.8,-11.91,-13.37,-13.33,0,*69
1522623751.53,62626,10.13,71498.8,-11.91,-13.37,-13.37,0,*6E
1522623752.78,62627,10.13,71480.3,-11.91,-13.51,-13.37,0,*6F
1522623753.99,62628,10.19,71488.3,-11.91,-13.47,-13.23,0,*62
1522623755.26,62629,10.13,71494.0,-11.89,-13.33,-13.07,0,*6F
1522623756.47,62630,10.19,71532.0,-11.91,-13.19,-13.07,0,*66
1522623757.7,62631,10.19,71532.5,-11.91,-13.19,-13.51,0,*64
1522623758.94,62632,10.19,71542.3,-11.95,-13.61,-13.73,0,*6C
1522623760.21,62633,10.19,71444.0,-11.91,-14.05,-13.83,0,*63
1522623761.42,62634,10.19,71420.3,-11.91,-13.93,-13.73,0,*63
1522623762.64,62635,10.19,71450.5,-11.91,-13.93,-13.73,0,*62
1522623763.88,62636,10.13,71394.0,-11.91,-13.83,-13.93,0,*6E
1522623765.1,62637,10.19,71546.8,-11.95,-14.37,-14.19,0,*66
1522623766.34,62638,10.13,71500.8,-11.91,-14.79,-14.19,0,*67
1522623767.55,62639,10.19,71492.3,-11.91,-14.65,-14.33,0,*63
1522623768.8,62640,10.19,71504.8,-11.91,-14.79,-14.61,0,*67
1522623770.07,62641,10.19,71494.5,-11.95,-14.83,-14.51,0,*64
1522623771.29,62642,10.13,71478.0,-11.91,-15.07,-14.65,0,*69
1522623772.53,62643,10.19,71452.3,-11.91,-14.93,-14.37,0,*63
1522623773.77,62644,10.19,71518.0,-11.91,-14.79,-14.37,0,*60
1522623774.98,62645,10.19,71430.8,-11.91,-15.11,-14.61,0,*6D
1522623776.2,62646,10.19,71576.0,-11.91,-15.07,-14.61,0,*69
1522623777.47,62647,10.19,71592.5,-11.95,-15.35,-14.83,0,*61
1522623778.71,62648,10.19,71524.5,-11.91,-15.49,-14.83,0,*61
1522623779.95,62649,10.19,71510.5,-11.95,-15.39,-14.61,0,*6F
1522623781.22,62650,10.19,71572.0,-11.91,-15.21,-14.51,0,*69
1522623782.45,62651,10.13,71648.5,-11.91,-15.21,-14.23,0,*6D
1522623783.66,62652,10.19,71602.0,-11.91,-15.11,-13.93,0,*61
1522623784.87,62653,10.13,71626.3,-11.91,-14.69,-13.65,0,*67
1522623786.09,62654,10.19,71576.3,-11.91,-14.23,-13.51,0,*69
1522623787.34,62655,10.19,71624.5,-11.91,-13.79,-13.23,0,*65
1522623788.61,62656,10.19,71588.8,-11.91,-13.61,-13.33,0,*6E
1522623789.85,62657,10.13,71546.3,-11.91,-13.73,-13.37,0,*68
1522623791.06,62658,10.19,71564.3,-11.91,-13.65,-13.47,0,*67
1522623792.28,62659,10.13,71558.0,-11.91,-13.73,-13.51,0,*66
1522623793.52,62660,10.19,71564.8,-11.91,-13.65,-13.37,0,*6B
1522623794.76,62661,10.13,71568.3,-11.91,-13.61,-13.23,0,*6B
1522623796.01,62662,10.13,71570.8,-11.91,-13.33,-13.11,0,*6E
1522623797.23,62663,10.13,71510.5,-11.91,-13.23,-13.11,0,*6E
1522623798.47,62664,10.19,71498.8,-11.91,-13.33,-13.11,0,*68
1522623799.71,62665,10.19,71500.3,-11.89,-13.47,-13.19,0,*6B
1522623800.98,62666,10.13,71506.0,-11.91,-13.61,-13.37,0,*69
1522623802.2,62667,10.13,71494.5,-11.91,-13.65,-13.23,0,*69
1522623803.44,62668,10.13,71524.8,-11.89,-13.47,-13.19,0,*66
1522623804.73,62669,10.19,71542.0,-11.89,-13.33,-13.01,0,*6D
1522623806.0,62670,10.19,71552.5,-11.89,-13.19,-13.01,0,*6D
1522623807.27,62671,10.19,71570.8,-11.89,-13.29,-13.19,0,*66
1522623808.51,62672,10.13,71566.0,-11.89,-13.43,-13.43,0,*66
1522623809.78,62673,10.13,71550.8,-11.89,-13.69,-13.61,0,*6F
1522623811.01,62674,10.13,71562.3,-11.89,-13.93,-13.69,0,*65
1522623812.28,62675,10.19,71562.0,-11.89,-14.01,-13.69,0,*68
1522623813.58,62676,10.13,71408.8,-11.89,-14.47,-14.05,0,*64
1522623814.87,62677,10.13,71432.0,-11.89,-14.47,-13.87,0,*68
1522623816.16,62678,10.19,71488.3,-11.89,-14.43,-13.79,0,*62
1522623817.38,62679,10.19,71488.0,-11.91,-14.23,-13.73,0,*66
1522623818.6,62680,10.13,71428.5,-11.91,-14.11,-13.73,0,*61
1522623819.85,62681,10.13,71506.5,-11.91,-14.05,-13.73,0,*65
1522623821.07,62682,10.13,71460.8,-11.95,-14.19,-13.65,0,*68
1522623822.34,62683,10.13,71486.3,-11.89,-13.79,-13.19,0,*6E
1522623823.61,62684,10.13,71464.8,-11.89,-13.61,-13.07,0,*6F
1522623824.86,62685,10.13,71444.8,-11.91,-13.33,-13.19,0,*6F
1522623826.1,62686,10.19,71440.3,-11.91,-13.73,-13.83,0,*6B
1522623827.34,62687,10.13,71514.8,-11.91,-14.51,-14.11,0,*61
1522623828.59,62688,10.13,71512.8,-11.91,-14.47,-13.93,0,*64
1522623829.82,62689,10.13,71516.5,-11.91,-14.33,-13.79,0,*62
1522623831.04,62690,10.19,71474.3,-11.91,-14.11,-13.73,0,*60
1522623832.26,62691,10.13,71454.8,-11.91,-14.37,-14.19,0,*6E
1522623833.47,62692,10.13,71466.3,-11.91,-14.69,-14.37,0,*6A
1522623834.72,62693,10.19,71450.8,-11.91,-14.83,-14.33,0,*6B
1522623835.99,62694,10.13,71438.0,-11.91,-14.93,-14.47,0,*6E
1522623837.22,62695,10.19,71458.8,-11.91,-15.21,-14.61,0,*63
1522623838.47,62696,10.13,71470.3,-11.91,-15.53,-14.83,0,*69
1522623839.71,62697,10.13,71524.0,-11.91,-15.71,-14.93,0,*69
1522623840.98,62698,10.13,71522.3,-11.91,-15.81,-14.83,0,*68
1522623842.2,62699,10.13,71494.8,-11.91,-15.63,-14.65,0,*6D
1522623843.42,62700,10.13,71504.0,-11.95,-15.49,-14.69,0,*6C
1522623844.63,62701,10.13,71522.8,-11.95,-15.63,-14.69,0,*65
1522623845.85,62702,10.13,71508.0,-11.95,-15.71,-14.69,0,*65
1522623847.06,62703,10.13,71524.0,-11.95,-15.71,-14.69,0,*64
1522623848.28,62704,10.13,71538.8,-11.95,-15.71,-14.65,0,*6F
1522623849.53,62705,10.13,71520.0,-11.95,-15.53,-14.51,0,*69
1522623850.75,62706,10.13,71520.8,-11.95,-15.53,-14.37,0,*6A
1522623851.97,62707,10.19,71516.8,-11.91,-15.53,-14.37,0,*6F
1522623853.2,62708,10.13,71546.3,-11.91,-15.35,-13.93,0,*69
1522623854.41,62709,10.19,71544.3,-11.95,-15.11,-13.47,0,*63
1522623855.63,62710,10.19,71552.5,-11.91,-14.61,-13.23,0,*6B
1522623856.85,62711,10.13,71544.0,-11.87,-14.19,-13.07,0,*64
1522623858.1,62712,10.13,71528.3,-11.87,-13.79,-12.93,0,*6A
1522623859.35,62713,10.13,71524.3,-11.89,-13.55,-12.89,0,*60
1522623860.62,62714,10.13,71520.8,-11.89,-13.29,-12.89,0,*6C
1522623861.88,62715,10.13,71516.0,-11.89,-13.01,-12.89,0,*67
1522623863.13,62716,10.19,71522.8,-11.89,-13.07,-12.89,0,*62
1522623864.4,62717,10.13,71532.8,-11.89,-13.07,-12.79,0,*6C
1522623865.65,62718,10.19,71544.5,-11.87,-13.07,-12.79,0,*6D
1522623866.9,62719,10.13,71526.3,-11.87,-12.93,-12.79,0,*60
1522623868.17,62720,10.19,71518.5,-11.87,-13.01,-12.75,0,*6C
1522623869.43,62721,10.13,71506.8,-11.87,-12.89,-12.71,0,*68
1522623870.7,62722,10.13,71518.8,-11.87,-12.79,-12.75,0,*60
1522623871.98,62723,10.13,71534.8,-11.87,-12.79,-12.75,0,*61
1522623873.27,62724,10.13,71536.8,-11.89,-12.79,-12.79,0,*64
1522623874.52,62725,10.13,71552.5,-11.89,-12.89,-12.93,0,*6E
1522623875.76,62726,10.13,71554.3,-11.89,-13.19,-13.07,0,*69
1522623877.01,62727,10.13,71522.0,-11.87,-13.19,-12.79,0,*6E
1522623878.27,62728,10.13,71496.3,-11.87,-12.93,-12.75,0,*6E
1522623879.54,62729,10.13,71500.3,-11.87,-13.01,-12.71,0,*61
1522623880.84,62730,10.13,71508.8,-11.89,-12.79,-12.75,0,*6D
1522623882.1,62731,10.13,71500.3,-11.89,-12.89,-13.01,0,*61
1522623883.35,62732,10.13,71520.3,-11.87,-13.29,-13.43,0,*61
1522623884.59,62733,10.13,71524.0,-11.87,-13.47,-13.33,0,*6F
1522623885.86,62734,10.13,71576.8,-11.85,-13.65,-13.97,0,*64
1522623887.13,62735,10.13,71550.8,-11.85,-14.83,-14.61,0,*64
1522623888.37,62736,10.13,71500.8,-11.87,-15.67,-14.75,0,*6B
1522623889.6,62737,10.19,71504.8,-11.87,-15.67,-14.65,0,*6B
1522623890.82,62738,10.13,71492.5,-11.87,-15.63,-14.65,0,*60
1522623892.07,62739,10.13,71502.8,-11.87,-15.81,-14.61,0,*69
1522623893.29,62740,10.13,71532.3,-11.87,-15.75,-14.61,0,*6C
1522623894.54,62741,10.13,71582.8,-11.87,-15.29,-14.05,0,*66
1522623895.8,62742,10.19,71578.8,-11.87,-14.93,-13.87,0,*68
1522623897.09,62743,10.13,71564.3,-11.89,-14.75,-13.87,0,*6F
1522623898.36,62744,10.13,71550.5,-11.87,-14.75,-14.05,0,*6B
1522623899.64,62745,10.13,71546.0,-11.89,-14.75,-13.87,0,*69
1522623900.89,62746,10.13,71550.3,-11.85,-14.23,-13.73,0,*6E
1522623902.16,62747,10.13,71552.5,-11.89,-14.01,-13.55,0,*67
1522623903.43,62748,10.13,71554.3,-11.87,-13.61,-13.29,0,*6C
1522623904.67,62749,10.13,71560.8,-11.89,-13.55,-13.15,0,*6B
1522623905.91,62750,10.13,71564.5,-11.87,-13.61,-13.15,0,*6A
1522623907.16,62751,10.13,71576.3,-11.87,-13.33,-12.89,0,*68
1522623908.38,62752,10.13,71562.3,-11.87,-13.07,-12.93,0,*67
1522623909.64,62753,10.13,71552.3,-11.87,-13.33,-13.19,0,*62
1522623910.9,62754,10.13,71530.8,-11.87,-13.33,-13.01,0,*6C
1522623912.13,62755,10.13,71546.0,-11.87,-13.19,-12.93,0,*6F
1522623913.38,62756,10.13,71548.8,-11.89,-13.19,-12.93,0,*62
1522623914.61,62757,10.13,71532.0,-11.87,-13.15,-13.01,0,*6B
1522623915.84,62758,10.13,71540.0,-11.87,-13.19,-13.15,0,*6D
1522623917.09,62759,10.13,71526.8,-11.89,-13.15,-13.01,0,*6B
1522623918.32,62760,10.13,71520.3,-11.87,-13.07,-12.93,0,*66
1522623919.6,62761,10.19,71456.8,-11.89,-13.33,-13.01,0,*64
1522623920.84,62762,10.13,71504.5,-11.89,-13.15,-12.93,0,*69
1522623922.09,62763,10.13,71522.3,-11.87,-13.01,-12.93,0,*63
1522623923.34,62764,10.13,71568.8,-11.87,-13.01,-12.93,0,*64
1522623924.62,62765,10.13,71584.8,-11.89,-12.93,-12.79,0,*65
1522623925.84,62766,10.13,71570.5,-11.87,-12.93,-12.89,0,*67
1522623927.09,62767,10.13,71560.3,-11.87,-12.79,-12.89,0,*62
1522623928.34,62768,10.13,71546.5,-11.87,-13.01,-13.19,0,*6B
1522623929.61,62769,10.13,71520.3,-11.89,-13.29,-13.43,0,*61
1522623930.9,62770,10.13,71484.8,-11.89,-13.61,-13.61,0,*65
1522623932.15,62771,10.13,71440.8,-11.87,-13.79,-13.73,0,*60
1522623933.41,62772,10.13,71442.5,-11.87,-13.87,-13.87,0,*69
1522623934.69,62773,10.13,71484.0,-11.89,-14.19,-14.01,0,*6F
1522623935.96,62774,10.13,71484.8,-11.89,-14.47,-14.15,0,*66
1522623937.25,62775,10.13,71516.3,-11.89,-15.01,-14.47,0,*63
1522623938.49,62776,10.13,71540.3,-11.89,-15.15,-14.29,0,*6D
1522623939.76,62777,10.13,71560.8,-11.89,-14.89,-14.01,0,*62
1522623941.03,62778,10.13,71572.8,-11.87,-14.43,-13.87,0,*6C
1522623942.27,62779,10.13,71560.0,-11.89,-14.29,-13.73,0,*64
1522623943.53,62780,10.13,71540.5,-11.89,-14.43,-13.69,0,*65
1522623944.81,62781,10.13,71528.5,-11.89,-14.15,-13.61,0,*6F
1522623946.08,62782,10.13,71534.5,-11.89,-13.93,-13.61,0,*65
1522623947.29,62783,10.13,71526.5,-11.91,-14.11,-13.93,0,*6D
1522623948.56,62784,10.13,71538.0,-11.89,-14.29,-14.01,0,*64
1522623949.81,62785,10.13,71532.0,-11.87,-14.15,-13.87,0,*6D
1522623951.08,62786,10.13,71472.5,-11.89,-14.05,-13.93,0,*64
1522623952.33,62787,10.13,71478.3,-11.87,-14.55,-14.19,0,*6B
1522623953.6,62788,10.13,71520.0,-11.89,-14.55,-14.15,0,*66
1522623954.9,62789,10.13,71474.0,-11.89,-14.47,-14.01,0,*61
1522623956.12,62790,10.13,71512.3,-11.91,-14.37,-13.93,0,*6B
1522623957.37,62791,10.13,71520.5,-11.91,-14.37,-13.97,0,*6E
1522623958.61,62792,10.13,71514.0,-11.91,-14.33,-13.83,0,*6C
1522623959.83,62793,10.13,71548.5,-11.91,-14.11,-14.11,0,*61
1522623961.07,62794,10.13,71548.3,-11.91,-14.79,-14.61,0,*6F
1522623962.33,62795,10.13,71524.3,-11.91,-15.21,-14.51,0,*61
1522623963.57,62796,10.13,71538.5,-11.91,-15.35,-14.69,0,*6C
1522623964.81,62797,10.13,71498.8,-11.91,-15.95,-14.93,0,*62
1522623966.08,62798,10.13,71514.0,-11.89,-15.63,-14.79,0,*69
1522623967.33,62799,10.13,71496.8,-11.95,-15.95,-14.97,0,*6C
1522623968.6,62800,10.13,71530.8,-11.91,-15.85,-14.83,0,*63
1522623969.84,62801,10.13,71524.0,-11.91,-15.95,-14.93,0,*62
1522623971.06,62802,10.13,71494.0,-11.95,-15.63,-14.69,0,*69
1522623972.3,62803,10.13,71508.8,-11.95,-15.67,-14.79,0,*6D
1522623973.52,62804,10.13,71500.3,-11.91,-15.49,-14.61,0,*6B
1522623974.77,62805,10.13,71524.5,-11.91,-15.53,-14.79,0,*68
1522623976.01,62806,10.13,71518.5,-11.91,-15.81,-14.65,0,*69
1522623977.23,62807,10.13,71544.3,-11.91,-15.71,-14.69,0,*6B
1522623978.44,62808,10.13,71516.3,-11.91,-15.67,-14.69,0,*63
1522623979.66,62809,10.13,71490.3,-11.91,-15.63,-14.65,0,*6A
1522623980.91,62810,10.13,71484.5,-11.91,-15.71,-14.83,0,*69
1522623982.15,62811,10.13,71462.5,-11.89,-15.63,-14.61,0,*6E
1522623983.41,62812,10.13,71496.5,-11.89,-15.63,-14.75,0,*68
1522623984.68,62813,10.13,71512.3,-11.89,-15.67,-14.79,0,*61
1522623985.94,62814,10.13,71530.0,-11.89,-15.67,-14.75,0,*6A
1522623987.22,62815,10.13,71500.3,-11.89,-15.75,-14.79,0,*64
1522623988.46,62816,10.13,71504.3,-11.89,-15.67,-14.65,0,*69
1522623989.7,62817,10.13,71528.8,-11.89,-15.67,-14.65,0,*68
1522623990.99,62818,10.13,71508.3,-11.89,-15.81,-14.75,0,*6E
1522623992.26,62819,10.13,71518.8,-11.89,-15.75,-14.75,0,*64
1522623993.54,62820,10.13,71510.3,-11.89,-15.35,-14.43,0,*6F
1522623994.81,62821,10.13,71522.8,-11.89,-15.57,-14.61,0,*6A
1522623996.05,62822,10.13,71514.5,-11.89,-15.67,-14.61,0,*6A
1522623997.29,62823,10.13,71490.0,-11.89,-15.67,-14.61,0,*6B
1522623998.53,62824,10.13,71470.8,-11.89,-15.49,-14.65,0,*64
1522623999.76,62825,10.13,71490.0,-11.87,-15.49,-14.65,0,*6B
1522624001.0,62826,10.13,71452.8,-11.89,-15.63,-14.65,0,*6E
1522624002.24,62827,10.13,71470.0,-11.89,-15.49,-14.61,0,*63
1522624003.51,62828,10.13,71466.3,-11.89,-15.49,-14.55,0,*6B
1522624004.75,62829,10.13,71496.3,-11.91,-15.25,-14.51,0,*6D
1522624006.03,62830,10.13,71524.3,-11.89,-15.21,-14.43,0,*6B
1522624007.32,62831,10.13,71492.8,-11.89,-15.21,-14.47,0,*6E
1522624008.61,62832,10.13,71470.0,-11.89,-15.21,-14.47,0,*6D
1522624009.88,62833,10.13,71452.5,-11.89,-15.29,-14.47,0,*64
1522624011.13,62834,10.13,71472.0,-11.87,-15.29,-14.55,0,*6E
1522624012.4,62835,10.13,71502.5,-11.89,-15.43,-14.61,0,*6A
1522624013.61,62836,10.13,71516.5,-11.91,-15.49,-14.61,0,*6A
1522624014.85,62837,10.13,71526.3,-11.91,-15.39,-14.69,0,*64
1522624016.1,62838,10.13,71536.3,-11.91,-15.39,-14.65,0,*67
1522624017.31,62839,10.13,71536.5,-11.91,-15.49,-14.69,0,*6D
1522624018.56,62840,10.13,71528.5,-11.91,-15.49,-14.51,0,*68
1522624019.77,62841,10.13,71506.3,-11.91,-15.25,-14.33,0,*67
1522624021.04,62842,10.13,71506.0,-11.91,-14.79,-13.97,0,*65
1522624022.26,62843,10.13,71442.5,-11.91,-14.37,-13.93,0,*6A
1522624023.56,62844,10.13,71450.3,-11.89,-14.43,-14.01,0,*6B
1522624024.83,62845,10.13,71388.8,-11.89,-14.47,-14.19,0,*67
1522624026.07,62846,10.13,71466.5,-11.89,-14.65,-14.29,0,*67
1522624027.31,62847,10.13,71532.8,-11.89,-14.89,-14.15,0,*6B
1522624028.55,62848,10.13,71494.3,-11.89,-14.61,-14.19,0,*6E
1522624029.79,62849,10.13,71486.5,-11.91,-15.11,-14.47,0,*6B
1522624031.0,62850,10.13,71418.3,-11.91,-15.11,-14.37,0,*64
1522624032.24,62851,10.13,71450.5,-11.91,-14.93,-14.19,0,*62
1522624033.48,62852,10.13,71450.8,-11.91,-14.61,-14.05,0,*61
1522624034.69,62853,10.13,71448.5,-11.95,-14.69,-14.23,0,*68
1522624035.9,62854,10.13,71488.3,-11.91,-14.69,-14.11,0,*6A
1522624037.11,62855,10.13,71496.5,-11.91,-14.61,-14.11,0,*63
1522624038.33,62856,10.13,71508.0,-11.91,-14.61,-14.19,0,*68
1522624039.54,62857,10.13,71498.3,-11.91,-14.65,-14.37,0,*61
1522624040.8,62858,10.13,71468.0,-11.91,-14.97,-14.51,0,*63
1522624042.05,62859,10.13,71438.8,-11.91,-15.07,-14.47,0,*6D
1522624043.29,62860,10.13,71406.3,-11.91,-14.83,-14.33,0,*69
1522624044.51,62861,10.13,71400.5,-11.91,-14.69,-14.23,0,*6D
1522624045.78,62862,10.13,71468.8,-11.91,-14.83,-14.47,0,*68
1522624047.0,62863,10.13,71504.5,-11.95,-15.25,-14.65,0,*60
1522624048.27,62864,10.13,71536.0,-11.91,-15.85,-14.93,0,*60
1522624049.52,62865,10.13,71532.3,-11.89,-15.75,-14.65,0,*6E
1522624050.74,62866,10.13,71516.5,-11.91,-15.67,-14.69,0,*6B
1522624052.03,62867,10.13,71484.3,-11.89,-15.35,-14.55,0,*6B
1522624053.3,62868,10.13,71474.3,-11.91,-15.39,-14.47,0,*62
1522624054.52,62869,10.13,71486.3,-11.91,-15.63,-14.61,0,*68
1522624055.76,62870,10.13,71488.3,-11.89,-15.63,-14.61,0,*69
1522624057.02,62871,10.13,71504.3,-11.89,-15.57,-14.61,0,*6F
1522624058.27,62872,10.13,71502.0,-11.89,-15.63,-14.65,0,*6F
1522624059.51,62873,10.13,71504.3,-11.89,-15.67,-14.61,0,*6E
1522624060.76,62874,10.13,71468.8,-11.87,-15.49,-14.55,0,*6C
1522624062.02,62875,10.13,71490.3,-11.89,-15.49,-14.55,0,*63
1522624063.26,62876,10.13,71492.3,-11.89,-15.29,-14.19,0,*6E
1522624064.56,62877,10.13,71488.5,-11.89,-14.75,-14.01,0,*6E
1522624065.77,62878,10.13,71492.3,-11.91,-14.61,-14.19,0,*64
1522624067.03,62879,10.13,71490.5,-11.95,-14.97,-14.51,0,*64
1522624068.28,62880,10.13,71474.3,-11.91,-15.53,-14.47,0,*68
1522624069.52,62881,10.13,71480.0,-11.91,-15.39,-14.37,0,*62
1522624070.74,62882,10.13,71482.8,-11.91,-15.07,-14.19,0,*60
1522624071.98,62883,10.13,71506.3,-11.91,-14.65,-13.97,0,*65
1522624073.26,62884,10.13,71496.0,-11.91,-14.51,-14.05,0,*69
1522624074.47,62885,10.13,71512.3,-11.91,-14.61,-14.19,0,*66
1522624075.74,62886,10.13,71530.5,-11.91,-14.51,-13.83,0,*62
1522624076.99,62887,10.13,71518.8,-11.91,-14.47,-14.23,0,*69
1522624078.23,62888,10.13,71526.5,-11.91,-15.11,-14.51,0,*61
1522624079.48,62889,10.13,71544.3,-11.91,-15.39,-14.65,0,*6D
1522624080.72,62890,10.13,71522.3,-11.95,-15.39,-14.61,0,*65
1522624081.99,62891,10.13,71488.3,-11.91,-15.21,-14.51,0,*6A
1522624083.25,62892,10.13,71450.5,-11.91,-15.35,-14.51,0,*6C
1522624084.52,62893,10.13,71472.0,-11.95,-15.21,-14.51,0,*6C
1522624085.73,62894,10.13,71514.3,-11.95,-15.07,-14.23,0,*6A
1522624087.01,62895,10.13,71534.3,-11.95,-14.51,-14.05,0,*6D
1522624088.25,62896,10.13,71524.0,-11.91,-14.61,-14.05,0,*69
1522624089.49,62897,10.13,71530.5,-11.95,-14.79,-14.19,0,*68
1522624090.7,62898,10.13,71504.3,-11.95,-15.11,-14.33,0,*60